Location: Poughquag
(41.6090°N, 73.6820°W)
Time: 07:50:25
(UTC-05:00)

STRAND 1 - Pass Details

Date: 07 December 2023
Orbit: 766 x 778 km, 98.4° (Epoch: 24 February)

Event Time Altitude Azimuth Distance (km) Brightness Sun altitude
Rises 04:40:49 0° 136° (SE) 3,234 ? -26.7°
Reaches altitude 10° 04:43:21 10° 126° (SE) 2,309 ? -26.2°
Maximum altitude 04:47:42 29° 67° (ENE) 1,376 ? -25.4°
Drops below altitude 10° 04:52:04 10° 8° (N) 2,316 ? -24.6°
Sets 04:54:37 0° 358° (N) 3,246 ? -24.1°
Enters shadow 04:54:38 - 358° (N) 3,257 ? -24.1°
